Time,TemperatureF,DewpointF,PressureIn,WindDirection,WindDirectionDegrees,WindSpeedMPH,WindSpeedGustMPH,Humidity,HourlyPrecipIn,Conditions,Clouds,dailyrainin,SoftwareType,DateUTC
2013-05-02 00:00:00,50.9,43.0,30.46,South,174,0.0,0.0,75,0.00,,,0.00,weatherlink.com 1.10,2013-05-02 04:00:00,
2013-05-02 00:15:00,49.9,43.0,30.46,South,174,0.0,0.0,78,0.00,,,0.00,weatherlink.com 1.10,2013-05-02 04:15:00,
2013-05-02 00:30:00,49.2,43.0,30.46,South,174,0.0,0.0,78,0.00,,,0.00,weatherlink.com 1.10,2013-05-02 04:30:00,
2013-05-02 00:45:00,49.0,43.0,30.45,South,174,0.0,0.0,80,0.00,,,0.00,weatherlink.com 1.10,2013-05-02 04:45:00,
2013-05-02 01:00:00,49.0,43.0,30.45,South,174,0.0,0.0,80,0.00,,,0.00,weatherlink.com 1.10,2013-05-02 05:00:00,
2013-05-02 01:15:00,48.8,43.0,30.45,South,174,0.0,0.0,81,0.00,,,0.00,weatherlink.com 1.10,2013-05-02 05:15:00,
2013-05-02 01:30:00,48.5,43.0,30.44,South,174,0.0,0.0,82,0.00,,,0.00,weatherlink.com 1.10,2013-05-02 05:30:00,
2013-05-02 01:45:00,48.3,43.0,30.43,South,174,0.0,0.0,82,0.00,,,0.00,weatherlink.com 1.10,2013-05-02 05:45:00,
2013-05-02 02:00:00,47.8,43.0,30.43,South,174,0.0,0.0,83,0.00,,,0.00,weatherlink.com 1.10,2013-05-02 06:00:00,
2013-05-02 02:15:00,47.9,43.0,30.42,South,174,0.0,0.0,84,0.00,,,0.00,weatherlink.com 1.10,2013-05-02 06:15:00,
2013-05-02 02:30:00,47.0,42.0,30.42,South,175,0.0,0.0,84,0.00,,,0.00,weatherlink.com 1.10,2013-05-02 06:30:00,
2013-05-02 02:45:00,46.7,43.0,30.41,South,174,0.0,0.0,85,0.00,,,0.00,weatherlink.com 1.10,2013-05-02 06:45:00,
2013-05-02 03:01:00,46.3,42.0,30.41,South,174,0.0,0.0,85,0.00,,,0.00,weatherlink.com 1.10,2013-05-02 07:01:00,
2013-05-02 03:16:00,46.1,42.0,30.41,South,174,0.0,0.0,86,0.00,,,0.00,weatherlink.com 1.10,2013-05-02 07:16:00,
2013-05-02 03:31:00,45.8,42.0,30.42,South,174,0.0,0.0,87,0.00,,,0.00,weatherlink.com 1.10,2013-05-02 07:31:00,
2013-05-02 03:46:00,45.8,42.0,30.41,South,174,0.0,0.0,87,0.00,,,0.00,weatherlink.com 1.10,2013-05-02 07:46:00,
2013-05-02 04:01:00,45.5,42.0,30.41,South,174,0.0,0.0,88,0.00,,,0.00,weatherlink.com 1.10,2013-05-02 08:01:00,
2013-05-02 04:16:00,45.6,42.0,30.41,South,175,0.0,0.0,88,0.00,,,0.00,weatherlink.com 1.10,2013-05-02 08:16:00,
2013-05-02 04:31:00,45.8,43.0,30.41,SW,232,0.0,0.0,89,0.00,,,0.00,weatherlink.com 1.10,2013-05-02 08:31:00,
2013-05-02 04:46:00,46.4,43.0,30.41,SW,232,0.0,0.0,89,0.00,,,0.00,weatherlink.com 1.10,2013-05-02 08:46:00,
2013-05-02 05:01:00,46.6,44.0,30.41,NNW,335,0.0,2.0,89,0.00,,,0.00,weatherlink.com 1.10,2013-05-02 09:01:00,
2013-05-02 05:16:00,46.5,43.0,30.41,NE,37,0.0,2.0,88,0.00,,,0.00,weatherlink.com 1.10,2013-05-02 09:16:00,
2013-05-02 05:31:00,46.6,43.0,30.41,NNE,23,1.0,1.0,88,0.00,,,0.00,weatherlink.com 1.10,2013-05-02 09:31:00,
2013-05-02 05:46:00,46.5,43.0,30.41,NNW,335,0.0,1.0,88,0.00,,,0.00,weatherlink.com 1.10,2013-05-02 09:46:00,
2013-05-02 06:01:00,46.7,43.0,30.42,NNW,340,0.0,2.0,88,0.00,,,0.00,weatherlink.com 1.10,2013-05-02 10:01:00,
2013-05-02 06:16:00,46.4,43.0,30.42,NNW,340,0.0,0.0,88,0.00,,,0.00,weatherlink.com 1.10,2013-05-02 10:16:00,
2013-05-02 06:31:00,46.4,43.0,30.42,NNW,340,0.0,0.0,89,0.00,,,0.00,weatherlink.com 1.10,2013-05-02 10:31:00,
2013-05-02 06:46:00,46.8,44.0,30.42,NNW,340,0.0,0.0,89,0.00,,,0.00,weatherlink.com 1.10,2013-05-02 10:46:00,
2013-05-02 07:01:00,47.9,45.0,30.43,NNW,340,0.0,0.0,89,0.00,,,0.00,weatherlink.com 1.10,2013-05-02 11:01:00,
2013-05-02 07:16:00,49.2,46.0,30.43,NNW,340,0.0,0.0,87,0.00,,,0.00,weatherlink.com 1.10,2013-05-02 11:16:00,
2013-05-02 07:31:00,50.9,46.0,30.44,NNW,340,0.0,0.0,83,0.00,,,0.00,weatherlink.com 1.10,2013-05-02 11:31:00,
2013-05-02 07:46:00,52.5,47.0,30.44,NNW,340,0.0,0.0,81,0.00,,,0.00,weatherlink.com 1.10,2013-05-02 11:46:00,
2013-05-02 08:01:00,53.8,47.0,30.44,NNW,338,0.0,1.0,79,0.00,,,0.00,weatherlink.com 1.10,2013-05-02 12:01:00,
2013-05-02 08:16:00,55.0,47.0,30.45,NNW,337,0.0,0.0,75,0.00,,,0.00,weatherlink.com 1.10,2013-05-02 12:16:00,
2013-05-02 08:31:00,56.6,47.0,30.45,SW,219,0.0,0.0,71,0.00,,,0.00,weatherlink.com 1.10,2013-05-02 12:31:00,
2013-05-02 08:46:00,57.8,46.0,30.45,SSW,197,0.0,0.0,66,0.00,,,0.00,weatherlink.com 1.10,2013-05-02 12:46:00,
2013-05-02 09:01:00,58.4,47.0,30.45,SSW,207,0.0,0.0,66,0.00,,,0.00,weatherlink.com 1.10,2013-05-02 13:01:00,
2013-05-02 09:16:00,59.8,46.0,30.45,SW,231,2.0,3.0,61,0.00,,,0.00,weatherlink.com 1.10,2013-05-02 13:16:00,
2013-05-02 09:31:00,61.7,47.0,30.45,NW,322,0.0,3.0,58,0.00,,,0.00,weatherlink.com 1.10,2013-05-02 13:31:00,
2013-05-02 09:46:00,62.8,46.0,30.44,West,276,2.0,3.0,55,0.00,,,0.00,weatherlink.com 1.10,2013-05-02 13:46:00,
2013-05-02 10:01:00,63.8,46.0,30.44,SSW,208,0.0,3.0,52,0.00,,,0.00,weatherlink.com 1.10,2013-05-02 14:01:00,
2013-05-02 10:16:00,64.0,46.0,30.45,NNE,18,0.0,3.0,53,0.00,,,0.00,weatherlink.com 1.10,2013-05-02 14:16:00,
2013-05-02 10:32:00,65.4,47.0,30.45,SSE,153,2.0,4.0,51,0.00,,,0.00,weatherlink.com 1.10,2013-05-02 14:32:00,
2013-05-02 10:47:00,65.6,46.0,30.45,SSW,194,1.0,2.0,49,0.00,,,0.00,weatherlink.com 1.10,2013-05-02 14:47:00,
2013-05-02 11:02:00,66.9,46.0,30.45,WNW,301,1.0,3.0,48,0.00,,,0.00,weatherlink.com 1.10,2013-05-02 15:02:00,
2013-05-02 11:17:00,67.9,45.0,30.44,NNW,342,2.0,3.0,44,0.00,,,0.00,weatherlink.com 1.10,2013-05-02 15:17:00,
2013-05-02 11:32:00,68.5,46.0,30.44,WNW,294,0.0,3.0,44,0.00,,,0.00,weatherlink.com 1.10,2013-05-02 15:32:00,
2013-05-02 11:47:00,69.9,45.0,30.43,NW,322,1.0,3.0,41,0.00,,,0.00,weatherlink.com 1.10,2013-05-02 15:47:00,
2013-05-02 12:02:00,70.3,45.0,30.43,SSW,193,0.0,3.0,41,0.00,,,0.00,weatherlink.com 1.10,2013-05-02 16:02:00,
2013-05-02 12:17:00,71.0,45.0,30.42,West,279,1.0,3.0,39,0.00,,,0.00,weatherlink.com 1.10,2013-05-02 16:17:00,
2013-05-02 12:32:00,70.0,45.0,30.42,South,178,0.0,5.0,41,0.00,,,0.00,weatherlink.com 1.10,2013-05-02 16:32:00,
2013-05-02 12:47:00,70.8,46.0,30.41,SSE,162,1.0,4.0,42,0.00,,,0.00,weatherlink.com 1.10,2013-05-02 16:47:00,
2013-05-02 13:02:00,70.5,46.0,30.41,SSW,197,2.0,5.0,42,0.00,,,0.00,weatherlink.com 1.10,2013-05-02 17:02:00,
2013-05-02 13:17:00,69.9,46.0,30.41,SSW,207,1.0,6.0,43,0.00,,,0.00,weatherlink.com 1.10,2013-05-02 17:17:00,
2013-05-02 13:32:00,70.2,47.0,30.40,SSW,193,0.0,5.0,44,0.00,,,0.00,weatherlink.com 1.10,2013-05-02 17:32:00,
2013-05-02 13:47:00,70.1,46.0,30.40,WSW,248,0.0,6.0,43,0.00,,,0.00,weatherlink.com 1.10,2013-05-02 17:47:00,
2013-05-02 14:02:00,70.4,46.0,30.40,SSW,198,3.0,6.0,42,0.00,,,0.00,weatherlink.com 1.10,2013-05-02 18:02:00,
2013-05-02 14:17:00,70.4,46.0,30.39,South,184,1.0,5.0,42,0.00,,,0.00,weatherlink.com 1.10,2013-05-02 18:17:00,
2013-05-02 14:32:00,69.7,46.0,30.39,SSE,166,0.0,9.0,43,0.00,,,0.00,weatherlink.com 1.10,2013-05-02 18:32:00,
2013-05-02 14:47:00,69.8,46.0,30.39,West,262,4.0,9.0,42,0.00,,,0.00,weatherlink.com 1.10,2013-05-02 18:47:00,
2013-05-02 15:02:00,69.8,46.0,30.38,SSW,207,2.0,7.0,43,0.00,,,0.00,weatherlink.com 1.10,2013-05-02 19:02:00,
2013-05-02 15:17:00,70.1,46.0,30.38,South,174,4.0,5.0,42,0.00,,,0.00,weatherlink.com 1.10,2013-05-02 19:17:00,
2013-05-02 15:32:00,70.1,46.0,30.37,SE,142,1.0,4.0,42,0.00,,,0.00,weatherlink.com 1.10,2013-05-02 19:32:00,
2013-05-02 15:47:00,69.7,45.0,30.37,South,181,2.0,8.0,42,0.00,,,0.00,weatherlink.com 1.10,2013-05-02 19:47:00,
2013-05-02 16:02:00,68.8,45.0,30.36,SW,226,0.0,6.0,42,0.00,,,0.00,weatherlink.com 1.10,2013-05-02 20:02:00,
2013-05-02 16:17:00,68.7,44.0,30.36,South,169,1.0,6.0,41,0.00,,,0.00,weatherlink.com 1.10,2013-05-02 20:17:00,
2013-05-02 16:32:00,68.0,44.0,30.36,SSW,201,1.0,8.0,42,0.00,,,0.00,weatherlink.com 1.10,2013-05-02 20:32:00,
2013-05-02 16:47:00,67.8,44.0,30.35,SSW,208,0.0,7.0,42,0.00,,,0.00,weatherlink.com 1.10,2013-05-02 20:47:00,
2013-05-02 17:02:00,66.9,43.0,30.35,South,187,4.0,9.0,42,0.00,,,0.00,weatherlink.com 1.10,2013-05-02 21:02:00,
2013-05-02 17:17:00,66.1,42.0,30.35,SW,222,2.0,4.0,42,0.00,,,0.00,weatherlink.com 1.10,2013-05-02 21:17:00,
2013-05-02 17:32:00,65.5,42.0,30.35,SSW,208,4.0,6.0,43,0.00,,,0.00,weatherlink.com 1.10,2013-05-02 21:32:00,
2013-05-02 17:47:00,64.9,42.0,30.35,South,184,4.0,8.0,44,0.00,,,0.00,weatherlink.com 1.10,2013-05-02 21:47:00,
2013-05-02 18:02:00,64.2,43.0,30.34,SSE,149,5.0,5.0,46,0.00,,,0.00,weatherlink.com 1.10,2013-05-02 22:02:00,
2013-05-02 18:17:00,63.8,44.0,30.34,South,190,1.0,5.0,48,0.00,,,0.00,weatherlink.com 1.10,2013-05-02 22:17:00,
2013-05-02 18:32:00,63.7,43.0,30.32,SSW,197,3.0,4.0,48,0.00,,,0.00,weatherlink.com 1.10,2013-05-02 22:32:00,
2013-05-02 18:48:00,63.6,43.0,30.32,South,172,0.0,3.0,48,0.00,,,0.00,weatherlink.com 1.10,2013-05-02 22:48:00,
2013-05-02 19:03:00,63.7,43.0,30.31,SSW,194,0.0,5.0,48,0.00,,,0.00,weatherlink.com 1.10,2013-05-02 23:03:00,
2013-05-02 19:18:00,64.1,44.0,30.32,SSW,203,1.0,4.0,48,0.00,,,0.00,weatherlink.com 1.10,2013-05-02 23:18:00,
2013-05-02 19:33:00,63.5,44.0,30.32,South,184,0.0,2.0,50,0.00,,,0.00,weatherlink.com 1.10,2013-05-02 23:33:00,
2013-05-02 19:48:00,62.6,43.0,30.32,South,186,1.0,2.0,49,0.00,,,0.00,weatherlink.com 1.10,2013-05-02 23:48:00,
2013-05-02 20:03:00,62.1,43.0,30.32,SSW,200,0.0,2.0,50,0.00,,,0.00,weatherlink.com 1.10,2013-05-03 00:03:00,
2013-05-02 20:18:00,61.4,43.0,30.32,South,188,0.0,4.0,52,0.00,,,0.00,weatherlink.com 1.10,2013-05-03 00:18:00,
2013-05-02 20:33:00,61.1,44.0,30.32,South,179,1.0,4.0,53,0.00,,,0.00,weatherlink.com 1.10,2013-05-03 00:33:00,
2013-05-02 20:48:00,60.6,44.0,30.32,South,190,0.0,2.0,54,0.00,,,0.00,weatherlink.com 1.10,2013-05-03 00:48:00,
2013-05-02 21:03:00,60.3,44.0,30.32,SSW,197,0.0,2.0,56,0.00,,,0.00,weatherlink.com 1.10,2013-05-03 01:03:00,
2013-05-02 21:18:00,60.0,44.0,30.33,SSW,200,0.0,1.0,56,0.00,,,0.00,weatherlink.com 1.10,2013-05-03 01:18:00,
2013-05-02 21:33:00,60.0,44.0,30.32,South,176,0.0,1.0,56,0.00,,,0.00,weatherlink.com 1.10,2013-05-03 01:33:00,
2013-05-02 21:48:00,59.5,44.0,30.32,South,176,1.0,1.0,58,0.00,,,0.00,weatherlink.com 1.10,2013-05-03 01:48:00,
2013-05-02 22:03:00,59.5,45.0,30.32,South,177,0.0,1.0,59,0.00,,,0.00,weatherlink.com 1.10,2013-05-03 02:03:00,
2013-05-02 22:18:00,59.0,45.0,30.33,SSW,210,0.0,1.0,60,0.00,,,0.00,weatherlink.com 1.10,2013-05-03 02:18:00,
2013-05-02 22:33:00,58.7,46.0,30.33,South,190,0.0,1.0,62,0.00,,,0.00,weatherlink.com 1.10,2013-05-03 02:33:00,
2013-05-02 22:48:00,58.3,45.0,30.34,SSW,204,0.0,1.0,61,0.00,,,0.00,weatherlink.com 1.10,2013-05-03 02:48:00,
2013-05-02 23:03:00,58.5,44.0,30.34,SSE,166,0.0,4.0,58,0.00,,,0.00,weatherlink.com 1.10,2013-05-03 03:03:00,
2013-05-02 23:18:00,58.3,43.0,30.34,SSW,197,0.0,1.0,58,0.00,,,0.00,weatherlink.com 1.10,2013-05-03 03:18:00,
2013-05-02 23:33:00,58.1,43.0,30.34,SSW,207,0.0,1.0,58,0.00,,,0.00,weatherlink.com 1.10,2013-05-03 03:33:00,
2013-05-02 23:48:00,58.2,43.0,30.35,SE,136,1.0,1.0,57,0.00,,,0.00,weatherlink.com 1.10,2013-05-03 03:48:00,